Orbital Elements at Epoch 2459000.5 (2020-May-31.0) TDB
Reference: JPL 27 (heliocentric ecliptic J2000)
Element | Value | Uncertainty (1-sigma) | Units |
e | .09327055613908293 | 3.0713e-08 | |
a | 3.035589109557799 | 1.6188e-08 | au |
q | 2.7524580250996 | 8.9094e-08 | au |
i | 9.091880630732437 | 5.46e-06 | deg |
node | 210.1624196897062 | 2.0495e-05 | deg |
peri | 263.1564189779944 | 3.6286e-05 | deg |
M | 78.76848795140452 | 2.9289e-05 | deg |
tp | 2458577.818817231428 (2019-Apr-04.31881723) | 0.00015693 | TDB |
period | 1931.803310615314 5.29 | 1.5452e-05 4.231e-08 | d yr |
n | .1863543757388704 | 1.4906e-09 | deg/d |
Q | 3.318720194015999 | 1.7697e-08 | au |
|
| | Orbit Determination Parameters
Additional Information
|